EW7906 Weather Reports


time (UTC)temp
C
wind
direction
speed
KPH
gust
KPH
rain 1hr
cm
rain 24hr
cm
rain mn
cm
humidity
%
barometer
mb
20260906220653 63 143 8.0 14.5 0.00 0.00 0.00 100 1011.5
20260906220152 63 213 4.8 12.9 0.00 0.00 0.00 100 1011.5
20260906215923 63 154 1.6 11.3 0.00 0.00 0.00 100 1011.5
20260906215152 63 219 1.6 11.3 0.00 0.00 0.00 100 1011.6
20260906214651 63 144 0.0 11.3 0.00 0.00 0.00 100 1011.6
20260906214138 63 143 3.2 11.3 0.00 0.00 0.00 100 1011.6
20260906213639 63 170 0.0 9.7 0.00 0.00 0.00 100 1011.6
20260906213131 63 182 3.2 9.7 0.00 0.00 0.00 100 1011.6
20260906212630 63 151 4.8 11.3 0.00 0.00 0.00 100 1011.7
20260906212126 63 105 9.7 11.3 0.00 0.00 0.00 100 1011.8
20260906211623 63 170 4.8 9.7 0.00 0.00 0.00 100 1011.8
20260906211120 63 123 3.2 12.9 0.00 0.00 0.00 100 1011.8
20260906210613 63 133 6.4 12.9 0.00 0.00 0.00 100 1011.8
20260906210109 63 130 4.8 14.5 0.00 0.00 0.00 100 1011.9
20260906205609 63 153 9.7 14.5 0.00 0.00 0.00 100 1011.9
20260906205111 64 160 0.0 9.7 0.00 0.00 0.00 100 1011.8
20260906204557 64 160 6.4 12.9 0.00 0.00 0.00 100 1011.9
20260906204328 64 140 4.8 12.9 0.00 0.00 0.00 100 1012.0
20260906203828 64 160 8.0 11.3 0.00 0.00 0.00 100 1012.0
20260906203057 65 119 3.2 9.7 0.00 0.00 0.00 100 1012.1
20260906202554 65 132 4.8 9.7 0.00 0.00 0.00 100 1012.1
20260906202049 65 146 0.0 9.7 0.00 0.00 0.00 100 1012.1
20260906201541 64 133 0.0 8.0 0.00 0.00 0.00 100 1012.1
20260906201039 64 140 0.0 6.4 0.00 0.00 0.00 100 1012.2
20260906200539 64 154 0.0 11.3 0.00 0.00 0.00 100 1012.3
20260906200010 64 154 0.0 14.5 0.00 0.00 0.00 100 1012.4
20260906195457 64 157 0.0 11.3 0.00 0.00 0.00 100 1012.4
20260906194959 64 97 0.0 8.0 0.00 0.00 0.00 100 1012.5
20260906194458 64 215 0.0 8.0 0.00 0.00 0.00 100 1012.6
20260906194206 64 215 0.0 8.0 0.00 0.00 0.00 100 1012.6
20260906193413 64 201 3.2 9.7 0.00 0.00 0.00 100 1012.8
20260906192902 64 177 0.0 9.7 0.00 0.00 0.00 100 1012.9
20260906192357 64 208 0.0 6.4 0.00 0.00 0.00 100 1012.9
20260906191857 64 171 0.0 6.4 0.00 0.00 0.00 100 1012.9
20260906191357 64 171 1.6 9.7 0.00 0.00 0.00 100 1013.0
20260906190857 64 177 0.0 11.3 0.00 0.00 0.00 100 1013.0
20260906190357 64 151 0.0 11.3 0.00 0.00 0.00 100 1013.1
20260906185858 65 147 3.2 9.7 0.00 0.00 0.00 100 1013.2
20260906185357 65 42 3.2 9.7 0.00 0.00 0.00 100 1013.3
20260906185128 64 251 0.0 9.7 0.00 0.00 0.00 100 1013.3
20260906184357 63 149 1.6 9.7 0.00 0.00 0.00 100 1013.3
20260906183856 64 132 0.0 9.7 0.00 0.00 0.00 100 1013.4
20260906183355 64 122 0.0 9.7 0.00 0.00 0.00 100 1013.4
20260906182840 63 106 4.8 11.3 0.00 0.00 0.00 100 1013.6
20260906182333 63 177 4.8 9.7 0.00 0.00 0.00 100 1013.5
20260906181832 63 125 0.0 8.0 0.00 0.00 0.00 100 1013.8
20260906181328 63 125 1.6 8.0 0.00 0.00 0.00 100 1013.9
20260906180812 63 57 0.0 8.0 0.00 0.00 0.00 100 1013.9
20260906180243 63 57 3.2 8.0 0.00 0.00 0.00 100 1014.0
20260906175946 63 2 0.0 6.4 0.00 0.00 0.00 100 1014.1
20260906175219 63 22 0.0 4.8 0.00 0.00 0.00 100 1014.3
20260906175215 63 67 1.6 6.4 0.00 0.00 0.00 100 1014.3
20260906174440 63 22 0.0 4.8 0.00 0.00 0.00 100 1014.4
20260906173705 63 358 0.0 6.4 0.00 0.00 0.00 100 1014.5
20260906173429 63 358 1.6 6.4 0.00 0.00 0.00 100 1014.5
20260906172644 63 358 0.0 4.8 0.00 0.00 0.00 100 1014.6
20260906172135 63 108 0.0 9.7 0.00 0.00 0.00 100 1014.7
20260906171629 63 135 1.6 9.7 0.00 0.00 0.00 100 1014.8
20260906171130 63 33 3.2 6.4 0.00 0.00 0.00 100 1015.0
20260906170558 63 139 1.6 4.8 0.00 0.00 0.00 100 1015.1
20260906170047 62 151 0.0 0.0 0.00 0.00 0.00 100 1015.2
20260906165525 62 151 0.0 0.0 0.00 0.00 0.00 100 1015.2
20260906165237 62 151 0.0 0.0 0.00 0.00 0.00 100 1015.2
20260906164444 62 151 0.0 0.0 0.00 0.00 0.00 100 1015.2
20260906163914 62 151 0.0 1.6 0.00 0.00 0.00 100 1015.3
20260906163350 62 151 0.0 9.7 0.00 0.00 0.00 100 1015.3
20260906162833 63 118 1.6 9.7 0.00 0.00 0.00 100 1015.3
20260906162330 63 160 0.0 0.0 0.00 0.00 0.00 100 1015.2
20260906161830 63 160 0.0 8.0 0.00 0.00 0.00 100 1015.2
20260906161308 62 160 0.0 12.9 0.00 0.00 0.00 100 1015.2
20260906160804 62 102 6.4 12.9 0.00 0.00 0.00 100 1015.2
20260906160538 62 158 1.6 12.9 0.00 0.00 0.00 100 1015.2
20260906155757 62 191 8.0 12.9 0.00 0.00 0.00 100 1015.2
20260906155258 62 154 4.8 12.9 0.00 0.00 0.00 100 1015.0
20260906154756 63 167 0.0 11.3 0.00 0.00 0.00 100 1015.0
20260906154228 63 142 3.2 11.3 0.00 0.00 0.00 100 1015.0
20260906153729 63 125 0.0 11.3 0.00 0.00 0.00 100 1014.9
20260906153227 63 123 0.0 9.7 0.00 0.00 0.00 100 1014.9
20260906152726 63 157 0.0 8.0 0.00 0.00 0.00 100 1014.8
20260906152227 63 115 1.6 6.4 0.00 0.00 0.00 100 1014.8
20260906151723 63 85 1.6 4.8 0.00 0.00 0.00 100 1014.7
20260906151224 63 0 0.0 0.0 0.00 0.00 0.00 100 1014.7
20260906150707 62 0 0.0 4.8 0.00 0.00 0.00 100 1014.7
20260906150203 62 0 0.0 4.8 0.00 0.00 0.00 100 1014.6
20260906145932 62 111 0.0 0.0 0.00 0.00 0.00 100 1014.5
20260906145147 63 111 0.0 0.0 0.00 0.00 0.00 100 1014.4
20260906144631 62 111 0.0 0.0 0.00 0.00 0.00 100 1014.5
20260906144108 62 111 0.0 0.0 0.00 0.00 0.00 100 1014.6
20260906143548 62 111 0.0 1.6 0.00 0.00 0.00 100 1014.6
20260906143048 62 111 0.0 1.6 0.00 0.00 0.00 100 1014.6
20260906142547 62 111 0.0 4.8 0.00 0.00 0.00 100 1014.6
20260906142038 62 111 0.0 8.0 0.00 0.00 0.00 100 1014.6
20260906141531 62 150 1.6 9.7 0.00 0.00 0.00 100 1014.5
20260906141031 62 109 6.4 9.7 0.00 0.00 0.00 100 1014.5
20260906140526 62 118 0.0 8.0 0.00 0.00 0.00 100 1014.5
20260906140023 62 210 0.0 0.0 0.00 0.00 0.00 100 1014.5
20260906135729 62 210 0.0 0.0 0.00 0.00 0.00 100 1014.5
20260906134936 62 210 0.0 4.8 0.00 0.00 0.00 100 1014.4
20260906134433 62 210 0.0 4.8 0.00 0.00 0.00 100 1014.3
20260906133926 62 210 0.0 0.0 0.00 0.00 0.00 100 1014.2
20260906133420 62 210 0.0 0.0 0.00 0.00 0.00 100 1014.3
20260906132917 62 210 0.0 0.0 0.00 0.00 0.00 100 1014.3
20260906132357 62 210 0.0 0.0 0.00 0.00 0.00 100 1014.2
20260906131833 62 210 0.0 0.0 0.00 0.00 0.00 100 1014.1
20260906131331 62 210 0.0 0.0 0.00 0.00 0.00 100 1014.0
20260906130817 62 210 0.0 0.0 0.00 0.00 0.00 100 1014.0
20260906130314 61 210 0.0 0.0 0.00 0.00 0.00 100 1013.9
20260906125758 61 210 0.0 0.0 0.00 0.00 0.00 100 1013.9
20260906125258 61 210 0.0 0.0 0.00 0.00 0.00 100 1013.9
20260906124744 61 210 0.0 0.0 0.00 0.00 0.00 100 1013.8
20260906124243 61 210 0.0 0.0 0.00 0.00 0.00 100 1013.6
20260906123738 61 210 0.0 0.0 0.00 0.00 0.00 100 1013.5
20260906123217 61 210 0.0 0.0 0.00 0.00 0.00 100 1013.5
20260906122711 61 210 0.0 0.0 0.00 0.00 0.00 100 1013.4
20260906122205 61 210 0.0 0.0 0.00 0.00 0.00 100 1013.3
20260906121700 61 210 0.0 0.0 0.00 0.00 0.00 100 1013.1
20260906121423 61 210 0.0 0.0 0.00 0.00 0.00 100 1013.1
20260906120629 61 210 0.0 0.0 0.00 0.00 0.00 100 1013.0
20260906120107 61 210 0.0 0.0 0.00 0.00 0.00 100 1012.9
20260906115601 61 210 0.0 0.0 0.00 0.00 0.00 100 1012.9
20260906115059 61 210 0.0 0.0 0.00 0.00 0.00 100 1012.8
20260906114818 61 210 0.0 0.0 0.00 0.00 0.00 100 1012.6
20260906114026 61 210 0.0 0.0 0.00 0.00 0.00 100 1012.5
20260906113504 61 210 0.0 0.0 0.00 0.00 0.00 100 1012.4
20260906112958 62 210 0.0 0.0 0.00 0.00 0.00 100 1012.3
20260906112459 62 210 0.0 0.0 0.00 0.00 0.00 100 1012.2
20260906111928 62 210 0.0 0.0 0.00 0.00 0.00 100 1012.1
20260906111400 62 210 0.0 0.0 0.00 0.00 0.00 100 1012.1
20260906110842 62 210 0.0 0.0 0.00 0.00 0.00 100 1012.1
20260906110341 62 210 0.0 0.0 0.00 0.00 0.00 100 1012.0
20260906110337 62 210 0.0 0.0 0.00 0.00 0.00 100 1012.1
20260906105324 62 210 0.0 0.0 0.00 0.00 0.00 100 1012.1
20260906104817 62 210 0.0 0.0 0.00 0.00 0.00 100 1012.1
20260906104316 62 210 0.0 0.0 0.00 0.00 0.00 100 1012.2
20260906103804 62 210 0.0 0.0 0.00 0.00 0.00 100 1012.2
20260906103257 62 210 0.0 0.0 0.00 0.00 0.00 100 1012.2
20260906102748 62 210 0.0 0.0 0.00 0.00 0.00 100 1012.1
20260906102244 62 210 0.0 0.0 0.00 0.00 0.00 100 1012.1
20260906101737 62 210 0.0 0.0 0.00 0.00 0.00 100 1012.0
20260906101504 62 210 0.0 0.0 0.00 0.00 0.00 100 1011.9
20260906100955 62 210 0.0 0.0 0.00 0.00 0.00 100 1011.9
20260906100218 62 210 0.0 0.0 0.00 0.00 0.00 100 1011.8
20260906095717 62 210 0.0 0.0 0.00 0.00 0.00 100 1012.0
20260906095215 62 210 0.0 6.4 0.00 0.00 0.00 100 1012.1
20260906094942 62 210 0.0 6.4 0.00 0.00 0.00 100 1012.1
20260906094211 62 135 0.0 0.0 0.00 0.00 0.00 100 1012.2
20260906093659 62 135 0.0 0.0 0.00 0.00 0.00 100 1012.2
20260906093155 62 135 0.0 0.0 0.00 0.00 0.00 100 1012.2
20260906092643 62 135 0.0 4.8 0.00 0.00 0.00 100 1012.1
20260906092139 62 135 0.0 6.4 0.00 0.00 0.00 100 1012.0
20260906091636 62 205 1.6 6.4 0.00 0.00 0.00 100 1012.1
20260906091134 62 174 0.0 6.4 0.00 0.00 0.00 100 1012.1
20260906090903 62 174 0.0 6.4 0.00 0.00 0.00 100 1012.1
20260906090124 62 156 0.0 4.8 0.00 0.00 0.00 100 1012.0
20260906085619 62 156 0.0 6.4 0.00 0.00 0.00 100 1012.0
20260906085112 62 156 0.0 8.0 0.00 0.00 0.00 100 1012.0
20260906084607 62 217 0.0 8.0 0.00 0.00 0.00 100 1012.0
20260906084051 62 195 1.6 9.7 0.00 0.00 0.00 100 1012.1
20260906083530 62 194 0.0 14.5 0.00 0.00 0.00 100 1012.1
20260906083011 62 151 0.0 14.5 0.00 0.00 0.00 100 1012.0
20260906082459 62 147 0.0 9.7 0.00 0.00 0.00 100 1012.1
20260906081957 62 147 1.6 9.7 0.00 0.00 0.00 100 1012.1
20260906081457 62 113 0.0 11.3 0.00 0.00 0.00 100 1012.1
20260906080956 62 137 6.4 11.3 0.00 0.00 0.00 100 1012.1
20260906080457 62 157 0.0 11.3 0.00 0.00 0.00 100 1012.2
20260906075957 62 188 0.0 8.0 0.00 0.00 0.00 100 1012.3
20260906075459 62 194 0.0 8.0 0.00 0.00 0.00 100 1012.3
20260906074958 62 202 1.6 8.0 0.00 0.00 0.00 100 1012.4
20260906074443 62 196 0.0 8.0 0.00 0.00 0.00 100 1012.5
20260906073941 62 196 1.6 8.0 0.00 0.00 0.00 100 1012.5
20260906073428 62 153 0.0 9.7 0.00 0.00 0.00 100 1012.5
20260906072923 62 181 0.0 6.4 0.00 0.00 0.00 100 1012.6
20260906072413 62 237 0.0 6.4 0.00 0.00 0.00 100 1012.5
20260906071857 62 164 0.0 9.7 0.00 0.00 0.00 100 1012.6
20260906071335 62 154 1.6 9.7 0.00 0.00 0.00 100 1012.6
20260906070812 62 150 4.8 9.7 0.00 0.00 0.00 100 1012.8
20260906070311 62 189 0.0 9.7 0.00 0.00 0.00 100 1012.8
20260906065757 62 192 3.2 9.7 0.00 0.00 0.00 100 1012.9
20260906065252 62 170 3.2 8.0 0.00 0.00 0.00 100 1012.9
20260906064733 62 154 0.0 3.2 0.00 0.00 0.00 100 1012.9
20260906064504 62 154 0.0 12.9 0.00 0.00 0.00 100 1013.0
20260906063712 62 154 3.2 12.9 0.00 0.00 0.00 100 1013.1
20260906063203 62 120 0.0 9.7 0.00 0.00 0.00 100 1013.1
20260906062652 62 178 3.2 9.7 0.00 0.00 0.00 100 1013.1
20260906062145 62 94 0.0 4.8 0.00 0.00 0.00 100 1013.1
20260906061643 62 163 0.0 9.7 0.00 0.00 0.00 100 1013.1
20260906061131 62 160 3.2 9.7 0.00 0.00 0.00 100 1013.2
20260906060626 62 177 0.0 9.7 0.00 0.00 0.00 100 1013.3
20260906060110 62 151 6.4 9.7 0.00 0.00 0.00 100 1013.2
20260906055610 62 137 0.0 8.0 0.00 0.00 0.00 100 1013.2
20260906055111 62 149 3.2 8.0 0.00 0.00 0.00 100 1013.2
20260906054605 62 167 0.0 9.7 0.00 0.00 0.00 100 1013.3
20260906054313 62 167 0.0 9.7 0.00 0.00 0.00 100 1013.2
20260906053543 62 146 0.0 8.0 0.00 0.00 0.00 100 1013.0
20260906053042 62 146 0.0 8.0 0.00 0.00 0.00 100 1012.9
20260906052532 62 116 0.0 9.7 0.00 0.00 0.00 100 1012.9
20260906052030 62 153 0.0 9.7 0.00 0.00 0.00 100 1012.9
20260906051531 62 129 6.4 9.7 0.00 0.00 0.00 100 1013.0
20260906051023 62 125 0.0 6.4 0.00 0.00 0.00 100 1013.1
20260906050520 62 157 0.0 9.7 0.00 0.00 0.00 100 1013.2
20260906050015 62 144 4.8 9.7 0.00 0.00 0.00 100 1013.1
20260906045515 62 161 6.4 14.5 0.00 0.00 0.00 100 1013.2
20260906045014 62 208 0.0 16.1 0.00 0.00 0.00 100 1013.1
20260906044500 62 126 9.7 16.1 0.00 0.00 0.00 100 1013.2
20260906044231 62 170 6.4 12.9 0.00 0.00 0.00 100 1013.2
20260906043733 62 178 3.2 16.1 0.00 0.00 0.00 100 1013.2
20260906043606 62 175 6.4 16.1 0.00 0.00 0.00 100 1013.1
20260906042457 62 109 3.2 14.5 0.00 0.00 0.00 100 1013.1
20260906041957 62 123 1.6 14.5 0.00 0.00 0.00 100 1013.0
20260906041458 62 172 8.0 12.9 0.00 0.00 0.00 100 1012.9
20260906041227 62 181 1.6 9.7 0.00 0.00 0.00 100 1012.9
20260906040458 62 146 0.0 12.9 0.00 0.00 0.00 100 1012.9
20260906035948 62 98 6.4 12.9 0.00 0.00 0.00 100 1012.9
20260906035444 62 150 6.4 12.9 0.00 0.00 0.00 100 1012.8
20260906034940 62 97 6.4 16.1 0.00 0.00 0.00 100 1012.8
20260906034437 62 143 8.0 16.1 0.00 0.00 0.00 100 1012.8
20260906033936 62 161 6.4 9.7 0.00 0.00 0.00 100 1012.8
20260906033437 63 160 0.0 9.7 0.00 0.00 0.00 100 1012.9
20260906032937 63 167 8.0 16.1 0.00 0.00 0.00 100 1012.9
20260906032435 63 150 3.2 16.1 0.00 0.00 0.00 100 1012.8
20260906031936 63 115 3.2 12.9 0.00 0.00 0.00 100 1012.8
20260906031427 63 161 4.8 12.9 0.00 0.00 0.00 100 1012.5
20260906030927 63 163 3.2 11.3 0.00 0.00 0.00 100 1012.4
20260906030427 63 92 3.2 11.3 0.00 0.00 0.00 100 1012.3
20260906030151 63 143 4.8 16.1 0.00 0.00 0.00 100 1012.3
20260906025412 63 57 8.0 19.3 0.00 0.00 0.00 100 1012.3
20260906024910 63 163 8.0 19.3 0.00 0.00 0.00 100 1012.2
20260906024410 63 156 4.8 16.1 0.00 0.00 0.00 100 1012.0
20260906023909 63 170 4.8 12.9 0.00 0.00 0.00 100 1011.8
20260906023408 63 92 6.4 12.9 0.00 0.00 0.00 100 1011.7
20260906022909 63 136 1.6 14.5 0.00 0.00 0.00 100 1011.5
20260906022404 63 140 1.6 14.5 0.00 0.00 0.00 100 1011.4
20260906021905 63 142 8.0 16.1 0.00 0.00 0.00 100 1011.2
20260906021405 63 147 3.2 16.1 0.00 0.00 0.00 100 1011.1
20260906020900 63 123 6.4 14.5 0.00 0.00 0.00 100 1011.1
20260906020401 63 108 0.0 14.5 0.00 0.00 0.00 100 1011.0
20260906015857 63 151 0.0 14.5 0.00 0.00 0.00 100 1010.9
20260906015624 63 119 4.8 12.9 0.00 0.00 0.00 100 1010.9
20260906014848 63 132 6.4 12.9 0.00 0.00 0.00 100 1010.9
20260906014616 63 146 4.8 12.9 0.00 0.00 0.00 100 1010.9
20260906013846 63 163 3.2 12.9 0.00 0.00 0.00 100 1010.9
20260906013345 63 140 0.0 16.1 0.00 0.00 0.00 100 1010.9
20260906012844 63 127 8.0 17.7 0.00 0.00 0.00 100 1010.7
20260906012341 63 174 8.0 20.9 0.00 0.00 0.00 100 1010.8
20260906011842 63 144 3.2 20.9 0.00 0.00 0.00 100 1010.7
20260906011342 63 129 8.0 19.3 0.00 0.00 0.00 100 1010.7
20260906010841 63 146 8.0 20.9 0.00 0.00 0.00 100 1010.6
20260906010341 63 129 6.4 20.9 0.00 0.00 0.00 100 1010.6
20260906005841 63 106 4.8 17.7 0.00 0.00 0.00 100 1010.6
20260906005606 64 68 4.8 17.7 0.00 0.00 0.00 100 1010.5
20260906004835 63 150 3.2 12.9 0.00 0.00 0.00 100 1010.5
20260906004333 64 144 0.0 14.5 0.00 0.00 0.00 100 1010.5
20260906004055 64 157 6.4 14.5 0.00 0.00 0.00 100 1010.5
20260906003324 64 137 0.0 8.0 0.00 0.00 0.00 100 1010.5
20260906002821 64 113 0.0 6.4 0.00 0.00 0.00 100 1010.4
20260906002306 64 149 0.0 6.4 0.00 0.00 0.00 100 1010.3
20260906001800 64 154 0.0 0.0 0.00 0.00 0.00 100 1010.3
20260906001241 64 154 0.0 0.0 0.00 0.00 0.00 100 1010.3
20260906000735 64 154 0.0 3.2 0.00 0.00 0.00 100 1010.3
20260906000226 64 154 0.0 8.0 0.00 0.00 0.00 100 1010.3
20260905235723 64 154 3.2 8.0 0.00 0.00 0.00 100 1010.2
20260905235220 64 147 0.0 6.4 0.00 0.00 0.00 100 1010.2
20260905234704 64 147 0.0 6.4 0.00 0.00 0.00 100 1010.2
20260905234158 64 74 0.0 4.8 0.00 0.00 0.00 100 1010.2
20260905233648 64 40 0.0 3.2 0.00 0.00 0.00 100 1010.0
20260905233147 64 36 0.0 9.7 0.00 0.00 0.00 100 1010.0
20260905232637 64 36 3.2 9.7 0.00 0.00 0.00 100 1010.0
20260905232113 64 164 1.6 12.9 0.00 0.00 0.00 100 1010.0
20260905231613 65 140 1.6 12.9 0.00 0.00 0.00 100 1010.0
20260905231117 65 108 0.0 8.0 0.00 0.00 0.00 100 1010.0
20260905231113 65 115 3.2 11.3 0.00 0.00 0.00 100 1010.0
20260905230607 65 123 4.8 8.0 0.00 0.00 0.00 100 1010.0
20260905225604 65 143 0.0 9.7 0.00 0.00 0.00 100 1009.9
20260905225056 65 143 1.6 9.7 0.00 0.00 0.00 100 1010.0
20260905224557 65 77 1.6 8.0 0.00 0.00 0.00 100 1010.2
20260905224059 65 15 0.0 6.4 0.00 0.00 0.00 100 1010.0
20260905223555 65 136 0.0 6.4 0.00 0.00 0.00 100 1010.0
20260905223315 65 136 0.0 9.7 0.00 0.00 0.00 100 1010.0
20260905222522 64 146 3.2 9.7 0.00 0.00 0.00 100 1010.2
20260905222007 65 144 0.0 9.7 0.00 0.00 0.00 100 1010.2
20260905221506 65 227 0.0 9.7 0.00 0.00 0.00 100 1010.2
20260905221233 65 247 0.0 8.0 0.00 0.00 0.00 100 1010.3